COSMOS 2251 DEB

Satellite information

Favourite Embed

Satellite Type and Status

DEBRISIN ORBIT

Key statistics

Satellite COSMOS 2251 DEB at a glance.

Uptime

11653

Days in orbit

Revolutions

≈ 14.5

Per day

Orbit

LEO

Low Earth Orbit

Inclination

74.0

Latest

Satellite identification and parameters

Extended collection of information and parameters for COSMOS 2251 DEB.

Object identification

Identified? True

Debris? True

Object name: COSMOS 2251 DEB

International designator: 1993-036APN

Object number (NORAD): 35671

Object ID (CCSDS): 35671

Country: COMMONWEALTH OF INDEPENDENT STATES (CIS)

Current information (Y/N): Y

RCS size: SMALL

Orbital parameters

Period: 99.45 minutes

Inclination: 74.0153 deg

SMA: 7110.465 km

Apoapsis: 761.404 km

Periapsis: 703.256 km

RAAN: 122.8626 deg

Eccentricy: 0.0040889

Argument of periapsis: 346.213 deg

Mean anomaly: 167.2041 deg

Mean motion: 14.47957418 rev/day

Mean motion (dot): 0.00000823 rev/day2

B* drag term: 0.00022712 1/REarth

Two-line elements (TLE)

Creation date: May 11, 2025, 10:21 p.m.

Reference frame: TEME

Reference center: EARTH

Epoch: May 11, 2025, 10:19 a.m. UTC

TLE line 0: 0 COSMOS 2251 DEB

TLE line 1: 1 35671U 93036APN 25131.43010009 .00000823 00000-0 22712-3 0 9992

TLE line 2: 2 35671 74.0153 122.8626 0040889 346.2130 167.2041 14.47957418836467

Live tracking on map

Real-time ground track for satellite COSMOS 2251 DEB.

In-orbit conjunctions

A list of the most updated potential collisions computed for object COSMOS 2251 DEB.

Target Orbit TCA Probability of collision Miss distance Type
DELTA 1 R/B SSO 2024-11-23 10:46:35 0.0002196657 95.0 (m) ROCKET BODY
COSMOS 44 LEO 2024-10-16 09:18:00 0.0001973212 634.0 (m) PAYLOAD

Associated space launch

Military communications satellite. Destroyed in a collision with Iridium 33.

COSMOS 2251 DEB was lifted into orbit during the mission ‘Kosmos-3M | Strela-2M 51’, on board a Kosmos-3M space rocket.

The launch took place on June 16, 1993, 4:17 a.m. from 132/1 (132L).

For more information about the launch, click the button.

Launch to space Kosmos-3M | Strela-2M 51
Kosmos-3M | Strela-2M 51

Agency: N/A

Status: Launch Successful

Launch date: June 16, 1993, 4:17 a.m. UTC

Rocket: Kosmos-3M

Launch pad: 132/1 (132L)

Location: Plesetsk Cosmodrome, Russian Federation

...

Latest news about this satellite

There are no fresh news available about this satellite. Check back as we update our databases every day.


Newsletter sign-up

Weekly statistics, charts and insights to help you stay on top of the space industry.